Lid_Strength_Index
10 13 14 12 11 11 11 12 13 12 10 10 11 11 10 9 9 9 9 7 8 8 7 7 6 7 7 7 8 8 8 8 8 8 8 8 7 7 6 6 6 6 6 6
12 14 10 9 9 10 11 12 13 11 9 10 12 13 11 10 9 9 9 8 8 8 8 7 7 8 8 8 8 9 9 8 9 8 8 8 7 7 7 7 7 6 6 6
12 11 9 9 10 11 12 12 12 12 10 11 12 13 12 9 8 8 7 7 8 8 8 7 7 8 8 8 9 9 9 9 8 8 8 8 8 8 8 8 8 8 7 8
12 10 10 11 12 11 13 10 10 11 13 16 12 17 13 11 10 9 7 8 8 8 7 7 7 8 8 9 8 9 8 9 8 8 9 9 10 10 9 9 9 9 8 9
13 12 12 13 12 10 12 9 11 11 13 15 14 16 14 11 11 9 9 7 8 7 7 7 7 8 8 8 8 9 8 8 8 9 9 10 10 10 10 10 10 10 10 10
13 9 11 11 9 9 9 11 12 12 14 18 15 15 15 13 11 9 8 7 7 7 7 7 8 8 8 8 8 9 9 8 8 8 9 10 10 10 11 11 11 11 10 10
13 13 11 9 11 10 11 14 18 19 19 19 13 14 13 10 8 7 8 7 7 7 7 7 8 8 8 9 9 9 9 9 8 9 9 9 10 10 11 11 11 11 11 11
16 17 13 10 11 12 13 13 18 20 20 17 13 16 14 8 7 6 6 6 6 7 6 7 7 8 9 9 9 9 9 9 8 9 10 10 10 10 11 11 11 11 11 11
13 14 10 9 9 10 13 14 11 14 15 17 16 13 10 8 8 7 7 6 7 7 6 7 8 9 9 9 9 9 9 8 8 9 9 10 10 11 11 11 11 11 11 10
11 14 10 9 9 10 11 10 15 15 19 21 16 15 15 11 10 8 8 8 7 6 6 7 8 8 9 9 9 9 9 9 9 9 9 10 10 9 10 11 11 11 11 11
10 12 12 9 11 12 11 12 11 12 14 19 19 17 10 10 9 9 8 7 7 6 5 7 8 8 8 8 8 9 9 9 9 9 9 10 10 10 10 11 11 11 11 11
9 11 16 13 10 8 9 11 11 16 17 16 17 17 8 8 8 7 7 6 6 5 5 7 7 8 9 9 8 8 9 9 9 9 10 10 11 11 12 12 12 12 13 12
10 13 17 15 12 11 12 11 11 11 13 16 18 16 8 7 7 7 7 6 6 6 5 6 7 8 8 8 8 9 10 10 10 10 11 12 12 12 13 12 12 12 12 13
8 11 15 18 15 13 14 12 11 12 16 15 14 13 10 9 8 7 7 6 6 6 5 7 7 7 8 9 10 10 11 10 10 11 12 13 13 13 13 12 12 12 13 13
10 14 13 12 12 12 12 12 12 12 12 14 12 12 10 9 9 8 6 7 7 6 7 7 8 8 9 10 10 11 11 11 12 13 13 14 14 13 12 12 12 12 13 13
9 14 12 13 11 11 12 12 12 11 10 11 11 12 9 8 7 7 7 7 7 7 8 7 7 8 10 10 11 11 11 11 12 14 15 15 13 13 14 13 14 13 13 14
11 13 14 16 11 12 15 12 10 10 9 10 13 11 8 9 8 8 7 7 7 7 7 7 8 10 11 11 11 11 12 12 14 15 14 15 15 15 17 14 14 16 16 15
11 12 13 16 14 20 12 8 8 9 9 9 9 8 8 8 8 9 9 8 6 7 8 11 11 12 12 12 11 12 12 14 14 15 15 14 16 18 16 18 19 18 18 19
8 11 14 16 16 13 12 10 11 11 11 8 9 8 8 7 8 10 10 11 10 11 12 12 12 12 12 12 12 13 14 14 14 17 18 19 19 20 19 20 19 18 16 16
8 8 13 15 17 21 13 8 6 7 14 8 8 9 8 8 13 10 10 10 11 12 11 11 11 13 12 12 13 14 15 15 17 17 17 16 17 18 19 19 17 16 16 15
13 13 14 14 16 13 9 7 6 14 14 8 7 8 9 11 11 9 11 11 11 11 12 12 13 13 13 12 13 15 15 17 17 14 14 15 13 13 16 15 15 15 15 13
13 14 15 14 16 18 7 8 12 9 8 7 7 8 10 10 11 11 11 12 12 12 12 12 13 13 12 13 13 14 16 15 14 15 14 14 14 12 12 13 14 13 13 15
14 12 14 12 13 8 7 8 7 6 7 7 8 8 9 11 11 12 12 12 12 12 12 12 13 12 12 11 13 16 15 13 13 13 14 15 12 13 14 15 16 15 15 16
9 8 12 11 9 8 7 7 6 6 7 7 7 9 9 10 11 12 12 12 12 12 12 12 12 12 12 11 13 13 13 13 13 13 13 14 14 14 15 15 15 16 17 18
10 8 10 11 9 8 7 6 6 6 5 7 8 9 10 10 11 11 12 12 11 12 12 12 12 12 12 12 12 12 12 12 13 14 14 14 14 15 16 16 16 17 20 18
8 9 11 12 8 8 8 7 5 6 7 8 9 9 9 10 11 11 12 11 11 11 11 11 11 11 12 12 13 12 12 13 14 14 14 14 15 16 16 16 17 15 15 15